星链-32263 (STARLINK-32263)

导读 | 星芒AI

STARLINK-32263 是 SpaceX Starlink 卫星互联网项目中的一颗低轨道卫星,属于第三代星链卫星(Gen2)。该卫星于2024年发射,旨在为全球提供高速、低延迟的宽带互联网服务。它运行在约550公里高度的轨道上,配备先进通信设备,支持更广覆盖和更高带宽。STARLINK-32263 是 SpaceX 扩展其卫星网络、提升服务性能和实现全球互联目标的重要组成部分。

基本信息
目录编号:
60371
目录名称:
STARLINK-32263
国际标识:
2024-138S
轨道中心:
EARTH
卫星名称:
星链-32263 (STARLINK-32263)
卫星全名:
星链-32263 (STARLINK-32263)
卫星状态:
在轨 (已飞行457 天)
发射日期:
2024-08-04 UTC
国别 :
美国 (US)
星等 :
--
轨道信息
数据来源 国际轨道数据
星历时间: 2025-11-02T06:41:51+0800
2天前
查看轨道信息
半长轴: 6853.38km
偏心率: 0.0001217
轨道倾角: 53.159°
近地点辐角 76.233°
升交点赤经 182.662°
平近点角 283.881°
近地点: 474.41km
远地点: 476.08km
周期: 94.106分钟
每日圈数: 15.301907
详细信息
卫星平台:
Starlink v2.0 mini
运营商:
太空探索技术公司
运营商所在国:
美国
制造商(研发单位):
太空探索技术公司
制造商所在国:
美国
使用方式:
暂无
卫星简介
星链(Starlink)计划是由太空探索技术公司(SpaceX)提出的一个巨型低轨卫星互联网星座项目,计划在2019年至2024年间在太空搭建由约1.2万颗卫星组成的“星链”网络,其中1584颗将部署在地球上空550千米处的近地轨道,并从2020年开始工作。该卫星仍在工作。
2D轨道图
3D轨道图
轨道高度分析图
轨道倾角分析图
轨道综合分析图
查看轨道综合分析图